#timestamp,LO_Frequency,Hit,StdDev 
1527073215.0,286046999.3,N
1527073216.0,286046999.3,N
1527073235.8,286046999.1,N
1527073255.6,286047000.9,N
1527073275.5,286047002.5,N
1527073295.3,286047000.5,N
1527073315.1,286046998.4,N
1527073335.9,286046999.3,N
1527073355.7,286046999.0,N
1527073375.6,286046999.6,N
1527073395.4,286046999.4,N
1527073415.2,286046999.5,N
1527073435.1,286047005.5,Y
1527073436.0,286047005.5,P
1527073455.8,286047009.2,N
1527073475.6,286047010.2,N
1527073495.5,286047010.2,N
1527073515.3,286047012.3,N
1527073535.2,286047009.4,N
1527073555.0,286047010.7,N
1527073555.9,286047010.7,N
1527073575.7,286047008.6,N
1527073595.6,286047007.0,N
1527073615.4,286047006.3,N
1527073635.3,286047010.5,Y
1527073655.1,286047000.0,P
1527073675.8,286046998.8,N
1527073695.7,286046999.4,N
1527073715.5,286046997.8,N
1527073735.4,286046995.2,N
1527073755.2,286046995.2,N
1527073775.0,286046993.4,N
1527073775.9,286046993.4,N
1527073795.8,286046994.6,N
1527073815.6,286046994.8,N
1527073835.4,286046992.0,N
1527073855.3,286046993.0,N
1527073875.1,286046993.2,N
1527073895.9,286046990.9,N
1527073915.7,286046995.9,N
1527073935.5,286046996.7,N
1527073955.4,286046993.7,N
1527073975.2,286046991.8,N
1527073995.0,286046990.3,N
1527073995.9,286046990.3,N
1527074015.8,286046992.1,N
1527074035.6,286046993.6,N
1527074055.5,286046995.0,N
1527074075.3,286046994.5,N
1527074095.1,286046992.8,N
1527074115.9,286046990.2,N
1527074135.7,286046993.1,N
1527074155.5,286046992.5,N
1527074175.4,286046994.4,N
1527074195.2,286046996.4,N
1527074215.1,286046993.4,N
1527074216.0,286046993.4,N
1527074235.8,286046994.3,N
1527074255.6,286046994.3,Y
1527074275.5,286046998.4,P
1527074295.3,286047001.2,N
1527074315.1,286047004.3,N
1527074335.9,286047003.3,N
1527074355.7,286047000.1,N
1527074375.6,286047000.8,N
1527074395.4,286047000.8,N
1527074415.2,286046998.5,N
1527074435.1,286047000.8,N
1527074436.0,286047000.8,N
1527074455.8,286046998.2,N
1527074475.7,286047001.1,N
1527074495.5,286046999.3,N
1527074515.3,286046998.9,N
1527074535.2,286046996.9,N
1527074555.0,286046996.7,N
1527074555.9,286046996.7,N
1527074575.7,286046997.8,N
1527074595.6,286046997.4,N
1527074615.4,286047000.2,N
1527074635.3,286047001.5,N
1527074655.1,286047000.5,N
1527074656.0,286047000.5,N
1527074675.8,286046998.2,N
1527074695.7,286047000.0,N
1527074715.5,286047002.4,N
1527074735.3,286047000.9,N
1527074755.2,286047001.2,N
1527074775.0,286047004.1,N
1527074775.9,286047004.1,N
1527074795.8,286047002.7,N
1527074815.6,286047002.1,N
1527074835.4,286047005.2,N
1527074855.3,286047003.6,N
1527074875.1,286046999.7,N
1527074895.9,286047000.6,N
1527074915.7,286046998.2,N
1527074935.5,286046998.4,N
1527074955.4,286046996.6,N
1527074975.2,286046997.0,N
1527074995.0,286046996.6,N
1527074995.9,286046996.6,N
1527075015.8,286046996.8,N
1527075035.6,286046996.5,N
1527075055.5,286046997.3,N
1527075075.3,286047000.9,N
1527075095.1,286047000.4,N
1527075115.9,286047005.2,N
1527075135.7,286047007.0,N
1527075155.6,286047009.1,Y
1527075175.4,286047005.2,P
1527075195.2,286047003.3,N
1527075215.1,286047003.3,N
1527075216.0,286047003.3,N
1527075235.8,286047005.3,Y
1527075255.6,286047011.9,P
1527075275.5,286047004.0,N
1527075295.3,286047000.1,N
1527075315.2,286047000.4,N
1527075335.9,286047001.1,N
1527075355.7,286047000.1,N
1527075375.6,286047002.3,N
1527075395.4,286047000.7,N
1527075415.2,286047002.2,N
1527075435.1,286046999.8,N
1527075436.0,286046999.8,N
1527075455.8,286046998.3,N
1527075475.7,286047000.4,N
1527075495.5,286046999.1,N
1527075515.3,286046997.2,N
1527075535.2,286046999.2,N
1527075555.0,286047000.3,N
1527075555.9,286047000.3,N
1527075575.8,286046998.2,N
1527075595.6,286046999.7,N
1527075615.4,286046999.0,N
1527075635.3,286046995.4,N
1527075655.1,286046995.0,N
1527075675.8,286046995.9,N
1527075695.7,286046993.9,N
1527075715.5,286046993.9,N
1527075735.4,286046993.9,N
1527075755.2,286046994.8,N
1527075775.0,286046991.7,N
1527075775.9,286046991.7,N
1527075795.8,286046993.4,N
1527075815.6,286046994.0,N
1527075835.5,286046992.1,N
1527075855.3,286046992.0,N
1527075875.1,286046992.6,N
1527075895.9,286046992.1,N
1527075915.7,286046992.7,N
1527075935.5,286046990.6,N
1527075955.4,286046992.4,N
1527075975.2,286046992.7,N
1527075995.1,286046992.9,N
1527075996.0,286046992.9,N
1527076015.8,286046992.5,N
1527076035.6,286046986.3,Y
1527076055.5,286046997.9,P
1527076075.3,286046999.2,N
1527076095.1,286046999.2,N
1527076115.9,286046999.0,N
1527076135.7,286046999.2,N
1527076155.6,286046999.2,N
1527076175.4,286046998.0,N
1527076195.2,286046996.2,N
1527076215.1,286046995.9,N
1527076216.0,286046995.9,N
1527076235.8,286046993.7,Y
1527076255.6,286046994.9,P
1527076275.5,286046997.6,N
1527076295.3,286046997.5,N
1527076315.2,286046997.5,N
1527076335.9,286046997.5,N
1527076355.7,286046997.2,N
1527076375.6,286046997.3,N
1527076395.4,286046997.1,Y
1527076415.3,286047000.6,P
1527076435.1,286047000.6,N
1527076436.0,286047000.6,N
1527076455.8,286047001.1,N
1527076475.7,286046998.2,N
1527076495.5,286047000.6,N
1527076515.3,286046998.8,N
1527076535.2,286046998.3,N
1527076555.0,286047001.2,N
1527076555.9,286047001.2,N
1527076575.8,286046998.2,N
1527076595.6,286046998.2,N
1527076615.4,286047000.7,N
1527076635.3,286047000.8,N
1527076655.1,286046998.2,N
1527076675.8,286047000.6,N
1527076695.7,286047001.2,N
1527076715.5,286046998.8,N
1527076735.4,286047000.2,N
1527076755.2,286046998.1,N
1527076775.0,286046998.2,N
1527076775.9,286046998.2,N
1527076795.8,286046998.4,N
